Change the Weather History Date:

Tuesday, August 12, 2014

  Actual Average Record
Temperature  
Mean Temperature 72 °F 66 °F  
Max Temperature 79 °F 82 °F 104 °F (1977)
Min Temperature 65 °F 51 °F 44 °F (1931)
Degree Days  
Heating Degree Days 0 1  
Month to date heating degree days 0 12  
Since 1 July heating degree days 6 68  
Cooling Degree Days 7 3  
Month to date cooling degree days 86 36  
Year to date cooling degree days 264 137  
Growing Degree Days 24 (Base 50)    
Moisture  
Dew Point 62 °F    
Average Humidity 68    
Maximum Humidity 84    
Minimum Humidity 52    
Precipitation  
Precipitation 0.04 in 0.03 in 0.33 in (1965)
Month to date precipitation 0.05 0.18  
Year to date precipitation 20.15 21.62  
Snow  
Snow 0.00 in - - ()
Month to date snowfall 0.0  
Since 1 June snowfall 0.0  
Since 1 July snowfall 0.0  
Snow Depth 0.00 in    
Sea Level Pressure  
Sea Level Pressure 29.85 in    
Wind  
Wind Speed 4 mph (WSW)    
Max Wind Speed 17 mph    
Max Gust Speed 23 mph    
Visibility 10 miles    
Events Rain , Thunderstorm    
T = Trace of Precipitation, MM = Missing Value Source: NWS Daily Summary

Daily Weather History Graph

Daily Weather History Graph

Search for Another Location

Airport or City:

Trip Planner

Search our weather history database for the weather conditions in past years. The results will help you decide how hot, cold, wet, or windy it might be!

Date:

Astronomy

Aug. 12, 2014 Rise Set
Actual Time 6:08 AM PDT 8:23 PM PDT
Civil Twilight 5:36 AM PDT 8:56 PM PDT
Nautical Twilight 4:55 AM PDT 9:36 PM PDT
Astronomical Twilight 4:09 AM PDT 10:21 PM PDT
Moon 9:23 PM PDT (8/12) 8:42 AM PDT (8/12)
Length of Visible Light 15h 20m
Length of Day
14h 15m
Waning Gibbous, 94% of the Moon is Illuminated
Aug 12
Waning Gibbous
Aug 17
Last Quarter
Aug 25
New
Sep 2
First Quarter
Sep 8
Full

Hourly Weather History & Observations

Time (PDT) Temp. Dew Point Humidity Pressure Visibility Wind Dir Wind Speed Gust Speed Precip Events Conditions
12:53 AM 75.0 °F 61.0 °F 62% 29.82 in 10.0 mi WSW 5.8 mph - N/A   Clear
2:53 AM 70.0 °F 61.0 °F 73% 29.82 in 10.0 mi Calm Calm - N/A   Clear
3:53 AM 71.1 °F 57.9 °F 63% 29.82 in 10.0 mi West 5.8 mph - N/A   Clear
5:53 AM 69.1 °F 59.0 °F 70% 29.83 in 10.0 mi Calm Calm - 0.00 in Rain Light Rain
6:53 AM 68.0 °F 60.1 °F 76% 29.83 in 10.0 mi WNW 4.6 mph - 0.00 in   Clear
7:53 AM 69.1 °F 61.0 °F 75% 29.84 in 10.0 mi Calm Calm - N/A   Clear
8:53 AM 71.1 °F 61.0 °F 70% 29.86 in 10.0 mi Calm Calm - N/A   Clear
10:53 AM 72.0 °F 62.1 °F 71% 29.84 in 9.0 mi NNE 9.2 mph - 0.00 in Rain , Thunderstorm Light Thunderstorms and Rain
11:53 AM 75.0 °F 61.0 °F 62% 29.85 in 10.0 mi SSE 6.9 mph - 0.00 in   Clear
12:53 PM 75.9 °F 61.0 °F 60% 29.86 in 10.0 mi South 10.4 mph 19.6 mph N/A   Clear
1:53 PM 78.1 °F 59.0 °F 52% 29.85 in 10.0 mi NW 4.6 mph - N/A Thunderstorm Clear
2:14 PM 79.0 °F 60.1 °F 52% 29.82 in 10.0 mi North 9.2 mph - N/A   Partly Cloudy
2:53 PM 77.0 °F 62.1 °F 60% 29.85 in 10.0 mi Calm Calm - N/A   Scattered Clouds
3:35 PM 75.0 °F 64.0 °F 69% 29.85 in 10.0 mi SSE 18.4 mph - 0.00 in Rain Light Rain
3:53 PM 73.9 °F 64.0 °F 71% 29.84 in 9.0 mi SSE 10.4 mph - 0.00 in Rain Light Rain
4:53 PM 73.9 °F 64.0 °F 71% 29.81 in 10.0 mi WNW 9.2 mph - 0.00 in   Clear
5:53 PM 73.0 °F 64.0 °F 73% 29.85 in 10.0 mi NNE 8.1 mph - N/A   Clear
6:53 PM 72.0 °F 64.9 °F 78% 29.87 in 10.0 mi Calm Calm - N/A   Overcast
7:53 PM 71.1 °F 64.9 °F 81% 29.88 in 10.0 mi SSW 4.6 mph - N/A   Overcast
8:53 PM 71.1 °F 64.9 °F 81% 29.86 in 10.0 mi South 6.9 mph - N/A   Mostly Cloudy
9:53 PM - - N/A% - 10.0 mi North 6.9 mph - N/A   Overcast
11:53 PM 66.9 °F 63.0 °F 87% 29.91 in 9.0 mi Calm Calm - 0.03 in Rain Light Rain